Station PACF1 - 8729108 - Panama City, FL Image indicating link to RSS feed of recent meteorological observations for station PACF1


Conditions at PACF1 as of
(10:18 am CDT)
1518 GMT on 05/28/2024:
     

Click on the graph icon in the table below to see a time series plot of the last five days of that observation.

5-day plot - Wind Direction Wind Direction (WDIR): SW ( 220 deg true )
5-day plot - Wind Speed Wind Speed (WSPD): 4.1 kts
5-day plot - Wind Gust Wind Gust (GST): 5.1 kts
5-day plot - Water Temperature Water Temperature (WTMP): 82.9 °F
5-day plot - Wind Speed at 10 Meters Wind Speed at 10 meters (WSPD10M): 3.9 kts
5-day plot - Wind Speed at 20 Meters Wind Speed at 20 meters (WSPD20M): 3.9 kts
5-day plot -  Wind Speed, Wind Gust and Atmospheric Pressure Combined plot of Wind Speed, Gust, and Air Pressure
NOS Water Level Observation Network Water Level
Previous observations
TIME
(CDT)
5-day plot - Wind Direction
WDIR
 
5-day plot - Wind Speed
WSPD
kts
5-day plot - Wind Gust
GST
kts
5-day plot - Wave Height
WVHT
ft
5-day plot - Dominant Wave Period
DPD
sec
5-day plot - Average Wave Period
APD
sec
5-day plot - Mean Wave Direction
MWD
 
5-day plot - Atmospheric Pressure
PRES
in
5-day plot - Pressure Tendency
PTDY
in
5-day plot - Air Temperature
ATMP
°F
5-day plot - Water Temperature
WTMP
°F
5-day plot - Dew Point
DEWP
°F
5-day plot - Salinity
SAL
psu
5-day plot - Visibility
VIS
nmi
5-day plot - Tide (above MLLW)
TIDE
ft
2024-05-28 10:12 am S 1.9 2.9------- 83.1----
2024-05-28 10:06 am- 0.0 1.0------- 83.1----
2024-05-28 10:00 am- 0.0 2.9------- 83.1----
2024-05-28 09:54 am- 0.0 4.1------- 82.9----
2024-05-28 09:48 am N 1.9 4.1------- 83.1----
2024-05-28 09:42 amENE 2.9 7.0------- 82.9----
2024-05-28 09:36 amNNE 4.1 6.0------- 83.1----
2024-05-28 09:30 amNNE 4.1 8.0------- 83.1----
2024-05-28 09:24 am N 2.9 4.1------- 83.1----
2024-05-28 09:18 am N 2.9 5.1------- 83.1----
2024-05-28 09:12 am N 1.9 4.1------- 83.1----
2024-05-28 09:06 am N 1.9 5.1------- 83.1----
2024-05-28 09:00 amNNW 2.9 4.1------- 83.1----
2024-05-28 08:54 am N 1.9 5.1------- 83.1----
2024-05-28 08:48 am NW 1.0 4.1------- 83.1----
2024-05-28 08:42 amNNW 2.9 5.1------- 83.1----
2024-05-28 08:36 amNNW 2.9 5.1------- 83.1----
2024-05-28 08:30 amNNW 4.1 5.1------- 83.1----
2024-05-28 08:24 am N 1.9 4.1------- 83.1----
2024-05-28 08:18 am N 4.1 6.0------- 83.1----
2024-05-28 08:12 am NW 4.1 5.1------- 83.1----
2024-05-28 08:06 am NW 1.9 6.0------- 83.3----
2024-05-28 08:00 am NW 2.9 5.1------- 83.3----
2024-05-28 07:54 amNNW 4.1 5.1------- 83.3----
2024-05-28 07:48 amNNW 2.9 5.1------- 83.5----
2024-05-28 07:42 am NW 2.9 5.1------- 83.5----
2024-05-28 07:36 am NW 5.1 6.0------- 83.5----
2024-05-28 07:30 am NW 4.1 5.1------- 83.7----
2024-05-28 07:24 am NW 4.1 5.1------- 83.7----
2024-05-28 07:18 am N 2.9 4.1------- 83.7----
2024-05-28 07:12 am N 2.9 6.0------- 83.7----
2024-05-28 07:06 am N 5.1 6.0------- 83.7----
2024-05-28 07:00 amNNW 2.9 6.0------- 83.7----
2024-05-28 06:54 am NW 4.1 6.0------- 83.7----
2024-05-28 06:48 am NW 5.1 6.0------- 83.7----
2024-05-28 06:42 am NW 2.9 6.0------- 83.7----
2024-05-28 06:36 am NW 2.9 6.0------- 83.7----
2024-05-28 06:30 am NW 4.1 7.0------- 83.7----
2024-05-28 06:24 am NW 5.1 6.0------- 83.7----
2024-05-28 06:18 am NW 5.1 7.0------- 83.7----
2024-05-28 06:12 amWNW 7.0 8.0------- 83.7----
2024-05-28 06:06 am W 7.0 8.9------- 83.7----
2024-05-28 06:00 am W 7.0 8.0------- 83.8----
2024-05-28 05:54 am W 7.0 8.0------- 83.8----
2024-05-28 05:48 am W 8.0 8.9------- 83.8----
2024-05-28 05:42 am W 6.0 8.0------- 83.8----
2024-05-28 05:36 am W 7.0 9.9------- 83.8----
2024-05-28 05:30 am W 8.0 8.9------- 83.8----
2024-05-28 05:24 am W 7.0 8.0------- 83.8----
2024-05-28 05:18 am W 6.0 7.0------- 83.8----
2024-05-28 05:12 am W 6.0 8.0------- 83.8----
2024-05-28 05:06 am W 7.0 8.0------- 83.8----
2024-05-28 05:00 am W 6.0 7.0------- 83.8----
2024-05-28 04:54 am W 6.0 7.0------- 83.8----
2024-05-28 04:48 am W 6.0 8.0------- 83.8----
2024-05-28 04:42 am W 6.0 8.0------- 83.8----
2024-05-28 04:36 am W 8.0 8.0------- 83.8----
2024-05-28 04:30 am W 7.0 8.0------- 84.0----
2024-05-28 04:24 am W 7.0 8.0------- 84.0----
2024-05-28 04:18 am W 6.0 7.0------- 84.0----
2024-05-28 04:12 am W 6.0 8.0------- 84.0----
2024-05-28 04:06 am W 7.0 8.0------- 84.0----
2024-05-28 04:00 am W 7.0 8.0------- 84.0----
2024-05-28 03:54 am W 6.0 8.0------- 84.0----
2024-05-28 03:48 amWSW 5.1 8.0------- 84.0----
2024-05-28 03:42 am W 6.0 7.0------- 83.8----
2024-05-28 03:36 amWSW 6.0 8.0------- 83.8----
2024-05-28 03:30 amWSW 7.0 8.9------- 83.8----
2024-05-28 03:24 amWSW 8.0 8.9------- 83.8----
2024-05-28 03:18 amWSW 8.0 8.9------- 84.0----
2024-05-28 03:12 amWSW 8.0 11.1------- 84.0----
2024-05-28 03:06 amWSW 8.9 9.9------- 84.0----
2024-05-28 03:00 amWSW 8.0 9.9------- 84.0----
2024-05-28 02:54 amWSW 8.9 11.1------- 84.0----
2024-05-28 02:48 amWSW 6.0 8.9------- 84.0----
2024-05-28 02:42 amWSW 8.0 9.9------- 84.0----
2024-05-28 02:36 am W 8.9 11.1------- 84.0----
2024-05-28 02:30 amWSW 8.9 11.1------- 84.0----
2024-05-28 02:24 amWSW 8.9 12.0------- 83.8----
2024-05-28 02:18 amWSW 11.1 12.0------- 83.8----
2024-05-28 02:12 amWSW 8.9 11.1------- 83.8----
2024-05-28 02:06 amWSW 9.9 13.0------- 83.8----
2024-05-28 02:00 amWSW 9.9 12.0------- 83.8----
2024-05-28 01:54 am SW 11.1 12.0------- 83.8----
2024-05-28 01:48 am SW 8.9 11.1------- 83.8----
2024-05-28 01:42 am SW 11.1 13.0------- 83.8----
2024-05-28 01:36 am SW 11.1 13.0------- 83.8----
2024-05-28 01:30 am SW 12.0 13.0------- 83.8----
2024-05-28 01:24 am SW 11.1 13.0------- 83.8----
2024-05-28 01:18 am SW 11.1 13.0------- 83.8----
2024-05-28 01:12 am SW 11.1 15.0------- 83.8----
2024-05-28 01:06 am SW 12.0 14.0------- 83.8----
2024-05-28 01:00 am SW 12.0 14.0------- 83.7----
2024-05-28 12:54 am SW 12.0 13.0------- 83.7----
2024-05-28 12:48 am SW 11.1 13.0------- 83.7----
2024-05-28 12:42 am SW 11.1 13.0------- 83.7----
2024-05-28 12:36 am SW 9.9 12.0------- 83.8----
2024-05-28 12:30 am SW 11.1 13.0------- 83.8----
2024-05-28 12:24 am SW 9.9 13.0------- 84.0----
2024-05-28 12:18 am SW 11.1 13.0------- 84.2----
2024-05-28 12:12 am SW 9.9 12.0------- 84.2----
2024-05-28 12:06 am SW 9.9 13.0------- 84.4----
2024-05-28 12:00 am SW 11.1 13.0------- 84.6----
2024-05-27 11:54 pm SW 11.1 13.0------- 84.6----
2024-05-27 11:48 pm SW 8.9 13.0------- 84.7----
2024-05-27 11:42 pm SW 11.1 12.0------- 84.7----
2024-05-27 11:36 pmSSW 8.0 11.1------- 84.6----
2024-05-27 11:30 pm SW 8.9 12.0------- 84.7----
2024-05-27 11:24 pm SW 11.1 13.0------- 84.6----
2024-05-27 11:18 pm SW 9.9 12.0------- 84.6----
2024-05-27 11:12 pm SW 11.1 14.0------- 84.7----
2024-05-27 11:06 pm SW 12.0 14.0------- 84.7----
2024-05-27 11:00 pm SW 12.0 14.0------- 84.7----
2024-05-27 10:54 pmSSW 9.9 13.0------- 84.7----
2024-05-27 10:48 pmSSW 11.1 14.0------- 84.7----
2024-05-27 10:42 pmSSW 13.0 14.0------- 84.7----
2024-05-27 10:36 pmSSW 9.9 13.0------- 84.7----
2024-05-27 10:30 pmSSW 9.9 12.0------- 84.7----
2024-05-27 10:24 pmSSW 9.9 12.0------- 84.9----
2024-05-27 10:18 pmSSW 9.9 12.0------- 84.9----
2024-05-27 10:12 pm SW 9.9 11.1------- 84.9----
2024-05-27 10:06 pm SW 8.9 11.1------- 84.9----
2024-05-27 10:00 pm SW 8.9 12.0------- 84.9----
2024-05-27 09:54 pm SW 8.9 12.0------- 84.9----
2024-05-27 09:48 pm SW 8.9 11.1------- 84.9----
2024-05-27 09:42 pmWSW 8.9 11.1------- 84.9----
2024-05-27 09:36 pmWSW 8.9 12.0------- 84.9----
2024-05-27 09:30 pmWSW 8.0 12.0------- 84.7----
2024-05-27 09:24 pmWSW 7.0 9.9------- 84.7----
2024-05-27 09:18 pmWSW 8.0 9.9------- 84.7----
2024-05-27 09:12 pmWSW 8.0 11.1------- 84.7----
2024-05-27 09:06 pm W 8.9 11.1------- 84.7----
2024-05-27 09:00 pm W 9.9 12.0------- 84.7----
2024-05-27 08:54 pmWSW 8.0 11.1------- 84.7----
2024-05-27 08:48 pmWSW 8.9 12.0------- 84.7----
2024-05-27 08:42 pmWSW 9.9 13.0------- 84.7----
2024-05-27 08:36 pmWSW 9.9 13.0------- 84.7----
2024-05-27 08:30 pmWSW 9.9 13.0------- 84.9----
2024-05-27 08:24 pm SW 11.1 13.0------- 84.7----
2024-05-27 08:18 pm SW 11.1 13.0------- 84.9----
2024-05-27 08:12 pm SW 12.0 14.0------- 84.9----
2024-05-27 08:06 pm SW 12.0 13.0------- 84.9----
2024-05-27 08:00 pm SW 12.0 13.0------- 85.1----
2024-05-27 07:54 pm SW 11.1 14.0------- 85.1----
2024-05-27 07:48 pm SW 12.0 14.0------- 85.1----
2024-05-27 07:42 pm SW 12.0 14.0------- 85.1----
2024-05-27 07:36 pm SW 11.1 14.0------- 85.1----
2024-05-27 07:30 pm SW 11.1 13.0------- 85.1----
2024-05-27 07:24 pm SW 12.0 14.0------- 85.1----
2024-05-27 07:18 pm SW 12.0 15.0------- 85.1----
2024-05-27 07:12 pmWSW 13.0 15.0------- 85.1----
2024-05-27 07:06 pmWSW 12.0 14.0------- 85.1----
2024-05-27 07:00 pmWSW 11.1 14.0------- 85.1----
2024-05-27 06:54 pmWSW 9.9 15.0------- 85.1----
2024-05-27 06:48 pm SW 12.0 15.0------- 85.1----
2024-05-27 06:42 pm SW 13.0 15.0------- 85.1----
2024-05-27 06:36 pm SW 12.0 14.0------- 85.1----
2024-05-27 06:30 pm SW 12.0 15.0------- 85.1----
2024-05-27 06:24 pm SW 12.0 15.9------- 85.1----
2024-05-27 06:18 pm SW 13.0 15.9------- 85.1----
2024-05-27 06:12 pm SW 14.0 17.1------- 85.1----
2024-05-27 06:06 pm SW 14.0 17.1------- 85.1----
2024-05-27 06:00 pm SW 14.0 17.1------- 85.1----
2024-05-27 05:54 pm SW 14.0 15.0------- 85.1----
2024-05-27 05:48 pm SW 13.0 17.1------- 85.1----
2024-05-27 05:42 pm SW 13.0 17.1------- 85.3----
2024-05-27 05:36 pm SW 15.0 17.1------- 85.1----
2024-05-27 05:30 pm SW 12.0 17.1------- 85.3----
2024-05-27 05:24 pmWSW 13.0 17.1------- 85.5----
2024-05-27 05:18 pm SW 14.0 17.1------- 85.5----
2024-05-27 05:12 pm SW 15.0 17.1------- 85.6----
2024-05-27 05:06 pm SW 13.0 17.1------- 85.5----
2024-05-27 05:00 pm---------- 85.5----
2024-05-27 04:54 pm---------- 85.5----
2024-05-27 04:48 pm SW 13.0 17.1------- 84.9----
2024-05-27 04:42 pm SW 13.0 17.1------- 84.7----
2024-05-27 04:36 pmSSW 14.0 15.9------- 84.7----
2024-05-27 04:30 pmSSW 13.0 15.0------- 84.7----
2024-05-27 04:24 pmSSW 13.0 15.9------- 84.6----
2024-05-27 04:18 pm SW 14.0 15.9------- 84.7----
2024-05-27 04:12 pm SW 12.0 15.0------- 84.7----
2024-05-27 04:06 pm SW 13.0 15.9------- 84.7----
2024-05-27 04:00 pmSSW 14.0 15.9------- 84.6----
2024-05-27 03:54 pmSSW 14.0 17.1------- 84.7----
2024-05-27 03:48 pm SW 12.0 15.9------- 84.7----
2024-05-27 03:42 pm SW 13.0 17.1------- 84.9----
2024-05-27 03:36 pmSSW 14.0 15.9------- 84.7----
2024-05-27 03:30 pm---------- 84.7----
2024-05-27 03:24 pm---------- 84.9----
2024-05-27 03:18 pmSSW 11.1 19.0------- 85.1----
2024-05-27 03:12 pmSSW 14.0 17.1------- 85.3----
2024-05-27 03:06 pmSSW 13.0 18.1------- 85.3----
2024-05-27 03:00 pmSSW 14.0 18.1------- 85.3----
2024-05-27 02:54 pmSSW 13.0 15.9------- 85.1----
2024-05-27 02:48 pmSSW 12.0 15.0------- 85.1----
2024-05-27 02:42 pmSSW 12.0 15.9------- 85.1----
2024-05-27 02:36 pmSSW 12.0 17.1------- 85.1----
2024-05-27 02:30 pmSSW 12.0 15.0------- 85.1----
2024-05-27 02:24 pmSSW 12.0 15.9------- 85.1----
2024-05-27 02:18 pm S 12.0 17.1------- 84.9----
2024-05-27 02:12 pmSSW 14.0 18.1------- 84.9----
2024-05-27 02:06 pmSSW 11.1 15.9------- 84.7----
2024-05-27 02:00 pmSSW 12.0 15.9------- 84.7----
2024-05-27 01:54 pmSSW 12.0 17.1------- 84.7----
2024-05-27 01:48 pmSSW 12.0 15.9------- 84.6----
2024-05-27 01:42 pm SW 12.0 15.0------- 84.4----
2024-05-27 01:36 pmSSW 12.0 14.0------- 84.2----
2024-05-27 01:30 pmSSW 11.1 13.0------- 84.2----
2024-05-27 01:24 pm SW 9.9 14.0------- 84.2----
2024-05-27 01:18 pm SW 12.0 15.9------- 84.2----
2024-05-27 01:12 pmSSW 9.9 14.0------- 84.2----
2024-05-27 01:06 pmSSW 12.0 15.0------- 84.2----
2024-05-27 01:00 pmSSW 8.9 11.1------- 84.4----
2024-05-27 12:54 pm S 8.9 12.0------- 83.8----
2024-05-27 12:48 pmSSW 11.1 13.0------- 83.7----
2024-05-27 12:42 pmSSW 9.9 13.0------- 84.0----
2024-05-27 12:36 pmSSW 11.1 14.0------- 83.7----
2024-05-27 12:30 pm SW 13.0 15.9------- 83.7----
2024-05-27 12:24 pmSSW 11.1 15.0------- 84.0----
2024-05-27 12:18 pm S 9.9 13.0------- 84.2----
2024-05-27 12:12 pm S 8.9 14.0------- 84.2----
2024-05-27 12:06 pmSSW 8.9 13.0------- 84.2----
2024-05-27 12:00 pmSSW 8.9 13.0------- 84.0----
2024-05-27 11:54 amSSW 12.0 13.0------- 84.2----
2024-05-27 11:48 am SW 9.9 14.0------- 84.2----
2024-05-27 11:42 amSSW 13.0 14.0------- 84.2----
2024-05-27 11:36 amSSW 12.0 15.0------- 84.2----
2024-05-27 11:30 am SW 12.0 14.0------- 84.0----
2024-05-27 11:24 amSSW 11.1 14.0------- 84.0----
2024-05-27 11:18 am SW 9.9 15.0------- 83.8----
2024-05-27 11:12 amSSW 12.0 14.0------- 84.0----
2024-05-27 11:06 amSSW 11.1 15.0------- 84.0----
2024-05-27 11:00 am S 13.0 15.0------- 84.0----
2024-05-27 10:54 am S 12.0 14.0------- 84.0----
2024-05-27 10:48 am S 12.0 14.0------- 84.0----
2024-05-27 10:42 amSSW 11.1 13.0------- 83.8----
2024-05-27 10:36 amSSW 8.9 15.0------- 84.0----
2024-05-27 10:30 am S 11.1 14.0------- 83.8----
2024-05-27 10:24 amSSW 8.0 15.0------- 83.7----
2024-05-27 10:18 amSSW 8.9 15.0------- 83.3----
2024-05-27 10:12 am S 9.9 14.0------- 83.3----
2024-05-27 10:06 amSSW 9.9 13.0------- 83.3----
2024-05-27 10:00 am SW 11.1 13.0------- 83.3----
2024-05-27 09:54 am SW 8.9 13.0------- 83.3----